EN

Hourly Weather Paluchy

Today, 24 February, Wednesday

Time Temperature Precipitation Wind Pressure Humidity
00:00 +2°C° 0 mm 2 mps 760 mmHg 87%
01:00 +2°C° 0 mm 2 mps 760 mmHg 86%
02:00 +2°C° 0 mm 2 mps 760 mmHg 85%
03:00 +3°C° 0 mm 2 mps 760 mmHg 87%
04:00 +3°C° 0 mm 2 mps 760 mmHg 89%
05:00 +3°C° 0 mm 2 mps 760 mmHg 90%
06:00 +3°C° 0 mm 2 mps 760 mmHg 88%
07:00 +3°C° 0 mm 2 mps 760 mmHg 87%
08:00 +3°C° 0 mm 2 mps 760 mmHg 85%
09:00 +3°C° 0 mm 3 mps 760 mmHg 87%
10:00 +4°C° 0 mm 3 mps 760 mmHg 89%
11:00 +5°C° 0 mm 3 mps 760 mmHg 91%
12:00 +7°C° 0 mm 3 mps 760 mmHg 92%
13:00 +7°C° 0 mm 3 mps 760 mmHg 92%
14:00 +8°C° 0 mm 3 mps 760 mmHg 92%
15:00 +8°C° 0 mm 2 mps 760 mmHg 91%
16:00 +7°C° 0 mm 2 mps 759 mmHg 91%
17:00 +7°C° 0 mm 2 mps 759 mmHg 90%
18:00 +6°C° 0 mm 2 mps 759 mmHg 89%
19:00 +6°C° 0 mm 2 mps 759 mmHg 88%
20:00 +5°C° 0 mm 2 mps 759 mmHg 87%
21:00 +5°C° 0 mm 2 mps 759 mmHg 86%
22:00 +5°C° 0 mm 2 mps 759 mmHg 86%
23:00 +5°C° 0 mm 2 mps 759 mmHg 85%

Tomorrow, 25 February, Thursday

Time Temperature Precipitation Wind Pressure Humidity
00:00 +5°C° 0 mm 2 mps 759 mmHg 85%
01:00 +5°C° 0 mm 2 mps 759 mmHg 85%
02:00 +5°C° 0 mm 2 mps 759 mmHg 85%
03:00 +4°C° 0 mm 2 mps 759 mmHg 85%
04:00 +4°C° 0 mm 2 mps 758 mmHg 84%
05:00 +4°C° 0 mm 2 mps 758 mmHg 84%
06:00 +4°C° 0 mm 2 mps 758 mmHg 84%
07:00 +4°C° 0 mm 2 mps 758 mmHg 84%
08:00 +4°C° 0 mm 2 mps 758 mmHg 84%
09:00 +5°C° 0 mm 2 mps 758 mmHg 81%
10:00 +7°C° 0 mm 2 mps 758 mmHg 77%
11:00 +9°C° 0 mm 3 mps 758 mmHg 74%
12:00 +10°C° 0 mm 2 mps 758 mmHg 72%
13:00 +12°C° 0 mm 2 mps 758 mmHg 69%
14:00 +13°C° 0 mm 2 mps 758 mmHg 66%
15:00 +13°C° 0 mm 2 mps 757 mmHg 70%
16:00 +12°C° 0 mm 2 mps 756 mmHg 73%
17:00 +12°C° 0 mm 2 mps 756 mmHg 77%
18:00 +10°C° 0 mm 2 mps 756 mmHg 79%
19:00 +8°C° 0 mm 2 mps 756 mmHg 81%
20:00 +7°C° 0 mm 2 mps 756 mmHg 83%
21:00 +7°C° 0 mm 3 mps 756 mmHg 85%
22:00 +5°C° 0 mm 3 mps 756 mmHg 86%
23:00 +5°C° 0 mm 3 mps 756 mmHg 87%

Day after tomorrow, 26 February, Friday

Time Temperature Precipitation Wind Pressure Humidity
00:00 +5°C° 0 mm 3 mps 756 mmHg 87%
01:00 +4°C° 0 mm 3 mps 755 mmHg 88%
02:00 +4°C° 0 mm 4 mps 755 mmHg 88%
03:00 +4°C° 0 mm 4 mps 755 mmHg 88%
04:00 +4°C° 0 mm 3 mps 755 mmHg 89%
05:00 +4°C° 0 mm 3 mps 754 mmHg 89%
06:00 +3°C° 0 mm 3 mps 754 mmHg 88%
07:00 +3°C° 0 mm 3 mps 754 mmHg 88%
08:00 +3°C° 0 mm 3 mps 754 mmHg 88%
09:00 +5°C° 0 mm 4 mps 754 mmHg 83%
10:00 +7°C° 0 mm 4 mps 754 mmHg 78%
11:00 +8°C° 0 mm 4 mps 754 mmHg 73%
12:00 +11°C° 0 mm 4 mps 754 mmHg 71%
13:00 +12°C° 0 mm 4 mps 754 mmHg 69%
14:00 +13°C° 0 mm 4 mps 753 mmHg 67%
15:00 +12°C° 0 mm 3 mps 753 mmHg 70%
16:00 +12°C° 0 mm 3 mps 753 mmHg 73%
17:00 +13°C° 0 mm 2 mps 752 mmHg 76%
18:00 +12°C° 0.1 mm 2 mps 752 mmHg 80%
19:00 +10°C° 0.1 mm 3 mps 752 mmHg 84%
20:00 +9°C° 0.1 mm 3 mps 753 mmHg 89%
21:00 +9°C° 0.2 mm 3 mps 753 mmHg 91%
22:00 +8°C° 0.2 mm 3 mps 752 mmHg 93%
23:00 +8°C° 0.2 mm 3 mps 752 mmHg 95%

27 February, Saturday

Time Temperature Precipitation Wind Pressure Humidity
00:00 +7°C° 0.3 mm 3 mps 752 mmHg 92%
01:00 +6°C° 0.3 mm 4 mps 752 mmHg 89%
02:00 +5°C° 0.3 mm 4 mps 752 mmHg 87%
03:00 +4°C° 0 mm 4 mps 752 mmHg 88%
04:00 +3°C° 0 mm 4 mps 752 mmHg 89%
05:00 +3°C° 0 mm 4 mps 752 mmHg 91%
06:00 +1°C° 0 mm 4 mps 752 mmHg 90%
07:00 +1°C° 0 mm 5 mps 752 mmHg 89%
08:00 +1°C° 0 mm 5 mps 753 mmHg 88%
09:00 +1°C° 0 mm 5 mps 753 mmHg 85%
10:00 +1°C° 0 mm 6 mps 753 mmHg 83%
11:00 +2°C° 0 mm 6 mps 753 mmHg 80%
12:00 +2°C° 0 mm 6 mps 753 mmHg 79%
13:00 +2°C° 0 mm 6 mps 753 mmHg 78%
14:00 +2°C° 0 mm 6 mps 754 mmHg 77%
15:00 +2°C° 0 mm 6 mps 754 mmHg 78%
16:00 +2°C° 0 mm 6 mps 754 mmHg 80%
17:00 +2°C° 0 mm 5 mps 754 mmHg 81%
18:00 +2°C° 0 mm 5 mps 754 mmHg 81%
19:00 +1°C° 0 mm 5 mps 755 mmHg 82%
20:00 +1°C° 0 mm 5 mps 755 mmHg 82%
21:00 +1°C° 0 mm 5 mps 756 mmHg 82%
22:00 +1°C° 0 mm 5 mps 756 mmHg 82%
23:00 0°C° 0 mm 4 mps 757 mmHg 82%

28 February, Sunday

Time Temperature Precipitation Wind Pressure Humidity
00:00 0°C° 0 mm 4 mps 757 mmHg 84%
01:00 -1°C° 0 mm 4 mps 757 mmHg 87%
02:00 0°C° 0 mm 3 mps 757 mmHg 89%
03:00 -1°C° 0 mm 3 mps 757 mmHg 91%
04:00 -1°C° 0 mm 3 mps 758 mmHg 93%
05:00 -2°C° 0 mm 3 mps 758 mmHg 96%
06:00 -2°C° 0 mm 3 mps 758 mmHg 94%
07:00 -2°C° 0 mm 4 mps 758 mmHg 93%
08:00 -2°C° 0 mm 4 mps 758 mmHg 92%
09:00 -2°C° 0 mm 4 mps 758 mmHg 87%
10:00 -1°C° 0 mm 4 mps 758 mmHg 82%
11:00 0°C° 0 mm 4 mps 759 mmHg 77%
12:00 +1°C° 0 mm 4 mps 758 mmHg 70%
13:00 +3°C° 0 mm 4 mps 758 mmHg 62%
14:00 +5°C° 0 mm 4 mps 758 mmHg 55%
15:00 +5°C° 0 mm 4 mps 758 mmHg 57%
16:00 +4°C° 0 mm 3 mps 758 mmHg 59%
17:00 +4°C° 0 mm 3 mps 758 mmHg 61%
18:00 +3°C° 0 mm 3 mps 758 mmHg 67%
19:00 +3°C° 0 mm 2 mps 758 mmHg 72%
20:00 +2°C° 0 mm 2 mps 758 mmHg 78%
21:00 +1°C° 0 mm 2 mps 759 mmHg 80%
22:00 +1°C° 0 mm 2 mps 759 mmHg 81%
23:00 +1°C° 0 mm 2 mps 759 mmHg 82%

1 March, Monday

Time Temperature Precipitation Wind Pressure Humidity
00:00 +1°C° 0 mm 2 mps 759 mmHg 82%
01:00 -1°C° 0 mm 2 mps 759 mmHg 82%
02:00 -1°C° 0 mm 2 mps 760 mmHg 82%
03:00 -1°C° 0 mm 2 mps 760 mmHg 83%
04:00 -1°C° 0 mm 2 mps 760 mmHg 83%
05:00 -1°C° 0 mm 2 mps 760 mmHg 83%
06:00 +1°C° 0 mm 1 mps 760 mmHg 82%
07:00 +1°C° 0 mm 1 mps 760 mmHg 82%
08:00 +1°C° 0 mm 1 mps 760 mmHg 81%
09:00 +3°C° 0 mm 1 mps 760 mmHg 75%
10:00 +4°C° 0 mm 1 mps 760 mmHg 68%
11:00 +6°C° 0 mm 1 mps 761 mmHg 62%
12:00 +6°C° 0 mm 1 mps 761 mmHg 59%
13:00 +7°C° 0 mm 1 mps 761 mmHg 56%
14:00 +8°C° 0 mm 1 mps 761 mmHg 53%
15:00 +8°C° 0 mm 1 mps 761 mmHg 55%
16:00 +8°C° 0 mm 1 mps 761 mmHg 58%
17:00 +6°C° 0 mm 0 mps 761 mmHg 60%
18:00 +5°C° 0 mm 0 mps 761 mmHg 64%
19:00 +4°C° 0 mm 0 mps 761 mmHg 68%
20:00 +3°C° 0 mm 0 mps 762 mmHg 71%
21:00 +3°C° 0 mm 1 mps 762 mmHg 73%
22:00 +3°C° 0 mm 1 mps 762 mmHg 75%
23:00 +3°C° 0 mm 1 mps 763 mmHg 77%
Show more

We Need Your Consent

Meteoprog and our Service Providers may store and access personal data such as cookies, device identifiers or other similar technologies on your device and process such data to personalise content and ads, as well as provide social media features and to analyse the traffic.

  • Store and/or access information on your device

    Cookies, device identifiers or other information can be stored or accessed on your device for the purposes indicated above.

  • Personalised ads and content, ad and content measurement, audience insights, and products development

    Ads and content can be personalised based on a profile. More data can be added to better personalise ads and content. Ad and content performance can be measured. Insights about the audience who saw the ads and content can be derived. Such data can be used to develop or improve user’s experience, systems and software.

By clicking ‘I Agree’ you will allow the use of indicated cookies, device identifiers, web beacons or other similar technologies. Your settings can be changed in the browser on your device.

For certain purposes, legitimate interests may be relied on, rather than consent. You can read more about this in our Privacy and Cookie Policy.